Showing default

NUSAT-42 (M WONENBURGER), 56966

Orbit data source: Space-Track

NUSAT-42 (M WONENBURGER), 56966 is a payload satellite owned by URUGUS S.A. (AR) in LEO that was launched on Mon, 12 Jun 2023 UTC via an FALCON 9 launch vehicle from the Air Force Western Test Range (AFWTR). Payloads include a variety of satellites, spacecraft, and rockets equipped with specific instruments for various scientific and technological missions. These include communications satellites like Starlink; space stations such as the ISS; scientific satellites like the Hubble; Earth observation satellites from companies like Planet Labs, Umbra, and HawkEye 360; GPS; miniature CubeSats for education and research; and military/defense satellites.

Loading next visibility...
NUSAT-42 (M WONENBURGER) details
Identifier
56966, 2023-084AL
Orbit
LEO
Last TLE update9 hours ago
Origin
Flag of ARURUGUS S.A. (AR / ARGN)
ManufacturerURUGUS S.A.
MissionOperational Commercial Imaging
Bus & MotorNEWSAT V, Unknown motor
Mass41.5 kg wet, 38.5 kg dry
Launch date (UTC)
2023-06-12 (1 year ago)
Launch vehicle
FALCON 9
Launch site
Air Force Western Test Range (AFWTR)
Object type
Payload
Rocket body
Debris
Shape & HBRBox, 0.813 m
Radar Cross Section0.542 m², Medium (>0.1 m² and < 1m²)

Expand to show TLE details & history

TLE from 9 hours ago
0 NUSAT-42 (M WONENBURGER)
1 56966U 23084AL  24326.06238597  .00029290  00000-0  91123-3 0  9997
2 56966  97.5115  86.6558 0007145 159.1731 200.9803 15.33243745 80179
Epoch: 2024-11-21T01:29Z
Definitive object data (Epoch: 2024-11-21T01:29:50.147Z)
Latitude-0.00009°
Longitude3.64735°
Altitude473.815 km
Speed7.626 km/s
True Right ascension05h 46m 37s
True Declination0° 00' 00"
Sunlit
Object was in full shadow at TLE epoch
Visualization TLE readout
Latitude0.00036°
Longitude-175.98803°
Altitude464.646 km
Speed7.637 km/s
Apparent Right ascension18h 22m 05s
Apparent Declination-19° 23' 55"
Sunlit
Object is in daylight
Visualization observer readout
Local Sidereal Time07:09:46
Azimuth30.001° NE
Elevation-67.067°
Doppler factor1
Orbital elements
Apogee altitude467.983 km
Perigee altitude458.207 km
Semi-major axis6,841.232 km
Eccentricity0.0007145
Inclination97.5115°
RAAN86.6558°
Arg. of periapsis159.1731°
True anomaly200.95101°
Mean anomaly200.9803°
Eccentric anomaly200.96565°
Mean motion3.83567 °/min
BSTAR0.00091123
Orbital period93.86 mins
Loading maneuver chart data...
Loading historical data...
Loading historical data...
Loading historical data...
Loading historical data...
Loading historical data...
Loading historical data...
Loading historical data...

NUSAT-42 (M WONENBURGER) Visibility forecast

Observer location: undefined°, undefined

Span
Click to sort rows by Start time (UTC) header in descending order
Start Az.
Max El. time (UTC)
Max El. Az.
Max El.
End time (UTC)
End Az.
5 mins2024-11-21 20:51:38.211Z26.935° NE2024-11-21 20:54:38.211Z131.607° SE35.9°2024-11-21 20:56:38.211Z172.923° S
|